Retour au catalogue

STARLINK-36540

ActifCommunicationsVLEO
NORAD 67511·PAYLOAD·🇺🇸 United States

Lancé Jan 18, 2026 depuis Cape Canaveral Space Force Station

Loading…

Prochains Passages (prochaines 24 heures)

TLE

FraisSource: CelesTrak SupGP

Époque: Sep 14, 2026, 21:02 UTC

1 67511C 26012U   26257.87687500 -.00028219  00000+0 -10221-2 0  2572
2 67511  43.0019 326.2978 0001419 268.3091  34.3928 15.27592440    19

Suivez STARLINK-36540 en temps réel avec AllMySat

Download on the App Store